Location: Mactaquac Provincial Park
(45.9573°N, 66.8897°W)
Time: 07:20:08
(UTC-03:00)

Cosmos 1867 - Visible Passes

Search period start: 02 August 2015 00:00
Search period end: 12 August 2015 00:00
Orbit: 776 x 800 km, 65.0° (Epoch: 01 August)

Date Brightness Start Highest point End Pass type
(mag) Time Alt. Az. Time Alt. Az. Time Alt. Az.
02 Aug 4.8 04:39:53 10° S 04:44:43 35° ESE 04:49:40 10° NE visible
03 Aug 5.2 04:09:14 12° SSE 04:13:13 26° ESE 04:17:44 10° ENE visible
04 Aug 5.5 03:38:49 13° SSE 03:41:45 19° ESE 03:45:38 10° ENE visible
04 Aug 3.7 05:19:30 10° SW 05:24:51 73° NW 05:30:21 10° NNE visible
05 Aug 5.7 03:08:21 12° SE 03:10:18 14° ESE 03:13:13 10° ENE visible
05 Aug 3.6 04:49:02 18° SSW 04:53:13 87° SE 04:58:43 10° NE visible
06 Aug 3.8 04:18:31 26° SSW 04:21:37 66° ESE 04:27:03 10° NE visible
07 Aug 4.1 03:47:58 33° S 03:50:02 50° ESE 03:55:19 10° NE visible
07 Aug 4.6 05:28:55 10° WSW 05:33:52 34° NW 05:38:50 10° NNE visible
08 Aug 4.4 03:17:22 33° SE 03:18:30 37° ESE 03:23:31 10° NE visible
08 Aug 4.3 04:58:02 16° WSW 05:02:05 42° NW 05:07:18 10° NNE visible
09 Aug 4.8 02:46:44 28° ESE 02:47:00 28° ESE 02:51:37 10° NE visible
09 Aug 4.0 04:27:24 26° WSW 04:30:21 54° NW 04:35:44 10° NNE visible
10 Aug 5.3 02:16:04 21° ESE 02:16:04 21° ESE 02:19:34 10° ENE visible
10 Aug 3.6 03:56:43 40° WSW 03:58:40 69° NW 04:04:09 10° NNE visible
10 Aug 5.5 05:39:26 10° WNW 05:43:19 19° NNW 05:47:07 10° NNE visible
11 Aug 5.7 01:45:21 14° E 01:45:21 14° E 01:47:14 10° ENE visible
11 Aug 3.5 03:26:01 61° SW 03:27:00 89° WNW 03:32:32 10° NE visible
11 Aug 5.3 05:07:08 10° W 05:11:24 22° NNW 05:15:38 10° NNE visible
